Tracking 20241 objects as of 26-Jan-2020
HD Live streaming from Space Station
objects crossing your sky now

COSMOS 2251 DEB

Track COSMOS 2251 DEB now!
10-day predictions


NORAD ID: 35893
Int'l Code: 1993-036AUG
Perigee: 689.3 km
Apogee: 793.2 km
Inclination: 73.7 °
Period: 99.5 minutes
Semi major axis: 7112 km
RCS: 0.0146 m2 (small)
Launch date: June 16, 1993
Source: Commonwealth of Independent States (former USSR) (CIS)
Launch site: PLESETSK MISSILE AND SPACE COMPLEX (PKMTR)

Note: This is SATELLITE DEBRIS
aabbcc
Your satellite tracking list
Your tracking list is empty




NASA's NSSDC Master Catalog

Two Line Element Set (TLE):
1 35893U 93036AUG 20024.73984408 +.00000286 +00000-0 +84038-4 0  9993
2 35893 073.6543 048.5017 0073070 208.0974 151.6232 14.47408746346165
Source of the keplerian elements: AFSPC